FW0671 Weather Reports


time (UTC)temp
C
wind
direction
speed
KPH
gust
KPH
rain 1hr
cm
rain 24hr
cm
rain mn
cm
humidity
%
barometer
mb
20260505193010 8 117 4.8 16.1 0.00 0.00 0.00 97 1008.8
20260505191505 9 128 1.6 9.7 0.00 0.00 0.00 97 1009.3
20260505190006 10 121 3.2 17.7 0.00 0.00 0.00 97 1008.9
20260505184501 10 114 4.8 17.7 0.00 0.00 0.00 97 1008.0
20260505183100 10 132 9.7 20.9 0.00 0.00 0.00 97 1007.5
20260505181557 10 132 8.0 19.3 0.00 0.00 0.00 97 1007.2
20260505174555 11 101 8.0 29.0 0.00 0.00 0.00 97 1006.9
20260505173052 12 97 9.7 29.0 0.00 0.00 0.00 97 1007.2
20260505171548 12 137 3.2 12.9 0.00 0.00 0.00 97 1006.4
20260505170052 12 144 1.6 16.1 0.00 0.00 0.00 97 1005.8
20260505164557 12 155 6.4 17.7 0.00 0.00 0.00 97 1006.1
20260505163052 12 154 0.0 9.7 0.00 0.00 0.00 97 1006.3
20260505161553 12 154 1.6 12.9 0.00 0.00 0.00 97 1006.2
20260505153150 12 217 1.6 4.8 0.00 0.00 0.00 97 1005.0
20260505151547 12 215 0.0 4.8 0.00 0.00 0.00 97 1004.8
20260505124548 13 159 4.8 24.1 0.00 0.00 0.00 94 1005.6
20260505123040 13 125 6.4 17.7 0.00 0.00 0.00 92 1005.8
20260505121540 15 146 11.3 25.7 0.00 0.00 0.00 90 1005.7
20260505120047 17 101 6.4 12.9 0.00 0.00 0.00 89 1005.0
20260505114535 17 166 0.0 8.0 0.00 0.00 0.00 88 1004.7
20260505113035 17 171 0.0 4.8 0.00 0.00 0.00 87 1004.3
20260505111533 17 168 3.2 9.7 0.00 0.00 0.00 87 1004.3
20260505101526 18 222 1.6 16.1 0.00 0.00 0.00 92 1005.6
20260505100024 17 200 4.8 16.1 0.00 0.00 0.00 95 1006.0
20260505094528 16 222 0.0 19.3 0.00 0.00 0.00 96 1006.1
20260505093021 16 234 1.6 11.3 0.00 0.00 0.00 97 1006.3
20260505091518 16 283 0.0 17.7 0.00 0.00 0.00 98 1006.6
20260505090020 16 213 3.2 16.1 0.00 0.00 0.00 98 1006.8
20260505084526 15 223 3.2 17.7 0.00 0.00 0.00 98 1007.3
20260505083016 15 251 1.6 12.9 0.00 0.00 0.00 98 1007.7
20260505081514 15 205 3.2 11.3 0.00 0.00 0.00 98 1007.9
20260505080020 15 226 1.6 12.9 0.00 0.00 0.00 99 1008.1
20260505074516 15 249 1.6 16.1 0.00 0.00 0.00 98 1008.3
20260505073020 15 246 0.0 6.4 0.00 0.00 0.00 98 1008.5
20260505071514 14 200 0.0 3.2 0.00 0.00 0.00 98 1008.7
20260505070019 13 245 0.0 6.4 0.00 0.00 0.00 98 1008.9
20260505064511 13 244 1.6 11.3 0.00 0.00 0.00 98 1009.5
20260505063012 13 277 1.6 16.1 0.00 0.00 0.00 98 1009.3
20260505061516 13 253 1.6 11.3 0.00 0.00 0.00 98 1009.3
20260505060012 13 260 0.0 6.4 0.00 0.00 0.00 98 1008.9
20260505054512 12 254 1.6 8.0 0.00 0.00 0.00 97 1009.0
20260505053015 12 256 1.6 16.1 0.00 0.00 0.00 98 1009.0
20260505051514 -17 0.0 0.0 0.00 0.00 0.00 1009.0
20260505041600 12 0.0 0.0 0.00 0.00 0.00 97 1009.3
20260505034556 12 286 0.0 8.0 0.00 0.00 0.00 96 1009.4
20260505033056 12 227 1.6 6.4 0.00 0.00 0.00 96 1009.2
20260505031604 12 228 0.0 6.4 0.00 0.00 0.00 96 1008.9
20260505024604 12 226 0.0 6.4 0.00 0.00 0.00 96 1009.1
20260505023054 12 225 0.0 14.5 0.00 0.00 0.00 96 1009.1
20260505021555 12 238 0.0 8.0 0.00 0.00 0.00 96 1009.2
20260505014607 12 159 0.0 12.9 0.00 0.00 0.00 95 1009.8
20260505013053 12 146 1.6 25.7 0.00 0.00 0.00 95 1010.7
20260505011603 12 134 14.5 30.6 0.00 0.00 0.00 94 1010.7
20260505004548 13 142 17.7 35.4 0.00 0.00 0.00 92 1010.5
20260505003046 13 242 0.0 3.2 0.00 0.00 0.00 92 1009.1
20260505001545 13 242 0.0 1.6 0.00 0.00 0.00 92 1009.3
20260504234548 14 242 0.0 0.0 0.00 0.00 0.00 92 1009.5
20260504233102 14 241 0.0 0.0 0.00 0.00 0.00 92 1009.8
20260504231544 14 241 0.0 3.2 0.00 0.00 0.00 92 1009.7
20260504224542 14 242 0.0 4.8 0.00 0.00 0.00 92 1009.8
20260504223055 14 241 0.0 6.4 0.00 0.00 0.00 92 1009.8
20260504221539 14 173 0.0 4.8 0.00 0.00 0.00 92 1010.1
20260504214537 14 172 0.0 3.2 0.00 0.00 0.00 91 1010.5
20260504213049 14 172 0.0 1.6 0.00 0.00 0.00 91 1010.7
20260504211536 15 172 0.0 0.0 0.00 0.00 0.00 90 1010.7
20260504204542 15 172 0.0 3.2 0.00 0.00 0.00 90 1011.0
20260504203030 15 172 0.0 0.0 0.00 0.00 0.00 90 1011.2
20260504201528 15 172 0.0 4.8 0.00 0.00 0.00 89 1011.3
20260504194529 15 172 0.0 0.0 0.00 0.00 0.00 88 1011.5